Temperature
13 13 13 13 13 13 13 13 13 13 13 13 13 13 13 13 12 12 12 12 12 12 12 12 12 12 13 13 13 13 13 13 13 12 12 12 12 12 12 12 12 12 12
13 13 13 13 13 13 12 12 12 13 12 12 12 12 12 12 12 12 12 12 12 12 12 12 12 12 12 12 12 12 12 12 12 12 12 12 12 12 12 12 12 12 12
12 12 12 12 12 12 12 12 12 12 12 12 12 12 12 12 12 12 12 12 12 12 12 12 12 12 12 12 12 12 12 12 12 12 12 12 12 12 12 12 12 12 12
12 12 12 12 12 12 12 12 12 12 12 12 12 12 12 11 11 11 11 11 11 11 12 11 11 11 11 12 12 12 12 12 11 11 11 12 12 12 12 12 12 12 11
11 11 11 11 11 11 11 11 11 11 11 11 11 11 11 11 11 11 11 11 11 11 11 11 11 11 11 11 11 11 11 11 11 11 11 11 11 11 11 11 11 11 11
11 11 11 11 11 11 11 11 11 11 11 11 11 11 11 11 10 11 11 10 10 10 10 10 10 11 11 10 10 10 11 11 11 10 11 10 11 11 11 11 11 11 11
11 11 11 11 10 10 10 10 10 10 10 10 10 10 10 10 10 10 10 10 10 10 10 10 10 10 10 10 10 10 10 10 10 10 10 10 10 10 10 10 10 10 10
10 10 10 10 10 10 10 10 10 10 10 10 9 9 9 9 10 10 10 10 10 10 10 10 10 10 10 10 9 9 10 10 10 9 9 9 10 10 10 10 10 10 10
10 10 10 10 10 10 10 10 9 9 9 9 9 8 8 8 9 9 9 9 9 9 9 9 9 9 9 9 9 9 9 9 9 9 9 9 9 9 9 9 9 9 9
9 9 9 9 9 9 9 9 9 9 9 9 8 8 8 7 7 8 8 9 9 9 8 8 8 8 8 8 8 9 9 9 9 8 8 8 8 8 9 9 8 9 9
9 9 9 9 9 9 9 8 8 8 8 8 8 8 7 7 7 7 7 8 8 8 8 8 8 8 8 8 8 8 8 8 8 8 8 8 8 8 8 8 8 8 8
9 8 8 8 8 8 8 8 8 8 8 8 7 7 7 7 7 6 6 7 7 8 8 7 7 7 7 7 7 7 7 7 7 7 7 7 7 8 8 8 8 8 8
8 8 8 8 8 8 7 7 7 7 7 7 7 7 7 6 6 6 6 6 6 7 7 7 7 7 7 7 7 7 7 7 7 7 7 7 7 7 7 7 7 7 7
8 7 7 7 7 7 7 7 7 7 7 7 7 6 6 6 6 6 5 5 5 5 6 6 7 6 6 6 6 6 6 6 6 6 6 6 7 6 6 7 7 7 7
7 7 7 7 7 7 7 7 7 7 6 6 6 6 6 6 6 6 5 5 5 5 5 6 6 6 6 5 5 5 6 6 6 6 6 6 6 6 6 6 6 6 6
7 6 6 6 6 6 6 6 6 6 6 6 6 6 6 6 5 5 5 5 5 4 4 5 5 5 5 5 5 5 5 5 5 5 5 5 5 5 5 5 5 5 5
6 6 6 6 6 6 6 6 6 6 5 5 5 5 5 5 5 5 5 4 4 4 4 4 5 4 4 4 4 4 4 4 4 4 4 4 4 4 4 4 4 4 4
6 6 6 6 6 5 5 5 5 5 5 5 5 5 5 5 4 4 4 4 4 4 4 4 4 4 4 4 4 4 4 4 4 4 4 4 3 3 3 3 3 3 3
6 6 5 5 5 5 5 5 5 5 5 5 4 4 4 4 4 4 4 4 4 3 3 3 3 3 3 3 3 3 3 3 3 3 3 3 3 3 3 3 3 3 3
5 5 5 5 5 5 5 5 5 4 4 4 4 4 4 4 3 3 3 3 3 3 3 3 3 3 3 3 3 3 3 3 3 3 3 2 2 2 2 2 2 2 2
5 5 5 5 5 5 4 4 4 4 4 4 4 4 3 3 3 3 3 2 2 2 2 2 2 2 2 2 2 2 2 2 2 2 2 2 2 2 2 2 2 2 2
5 5 4 4 4 4 4 4 4 4 3 3 3 3 3 3 3 2 2 2 2 2 2 2 2 1 2 1 1 1 1 1 2 2 1 2 1 1 1 1 1 1 1
4 4 4 4 4 4 4 3 3 3 3 3 3 3 3 2 2 2 2 2 2 1 1 1 1 1 1 1 1 1 1 1 1 1 1 1 1 1 1 1 1 0 0
4 4 4 4 4 4 3 3 3 3 3 3 3 2 2 2 2 1 1 1 1 1 1 1 1 1 1 0 0 0 0 0 0 0 -0 -0 1 1 1 0 0 -0 -0
4 3 3 3 3 3 3 3 2 2 2 2 2 2 2 1 1 1 1 1 1 1 1 0 0 0 0 -0 -0 -0 -0 -0 -0 -0 -1 -1 -1 -0 -0 -0 -0 -1 -1
3 3 3 3 3 3 3 2 2 2 2 2 2 2 1 1 1 1 0 0 0 1 0 0 -0 -0 -0 -0 -1 -1 -1 -1 -1 -1 -1 -2 -2 -2 -2 -1 -1 -1 -1
Wind_Speed
2 3 3 3 3 4 3 3 3 3 3 4 4 3 4 4 5 5 6 7 8 8 8 8 8 9 8 8 8 8 8 8 9 10 10 11 12 12 12 12 12 11 10
3 2 2 3 3 3 3 3 3 2 3 3 3 3 3 4 4 4 5 6 7 7 7 8 8 8 7 7 8 8 8 8 9 10 10 10 11 12 12 14 13 13 12
3 3 2 2 3 3 3 3 3 2 2 3 3 4 3 3 3 3 4 4 4 5 5 6 7 7 6 6 7 7 8 8 9 10 10 11 11 12 12 13 14 14 14
4 3 2 2 4 4 3 1 1 2 2 3 3 3 3 3 3 3 2 3 3 3 4 4 5 5 5 6 7 7 8 8 9 9 10 11 11 12 12 13 13 14 15
5 4 2 3 4 3 2 2 1 1 2 3 3 3 2 2 2 2 2 2 2 3 3 4 4 5 5 6 7 8 8 9 8 9 10 11 11 12 12 12 13 13 14
6 5 3 4 4 2 2 2 2 2 2 3 4 3 3 3 2 1 2 2 2 2 2 2 3 4 5 6 7 9 9 10 9 9 9 10 10 10 11 12 12 13 14
6 5 4 4 4 2 3 3 2 2 2 2 2 3 3 2 1 1 1 1 1 2 2 2 2 3 4 6 7 9 10 10 10 10 10 10 10 10 11 11 12 12 12
5 4 4 3 3 3 3 3 3 2 2 2 1 2 3 3 2 2 2 1 1 1 1 2 2 3 4 4 6 8 9 11 11 11 11 11 10 10 10 10 11 11 11
4 4 3 3 3 2 3 3 3 2 2 2 1 0 1 3 4 3 2 2 2 1 1 1 2 3 4 4 6 7 9 10 12 12 12 11 11 10 10 11 11 11 10
4 4 3 3 2 2 2 3 2 2 2 2 2 1 2 2 2 4 3 1 2 2 2 2 2 3 3 4 6 7 8 9 11 12 11 11 10 10 10 10 11 11 11
4 4 3 2 2 2 2 2 3 2 2 2 2 2 2 2 2 3 5 4 3 2 2 2 1 2 3 4 5 7 8 9 10 10 11 10 10 10 10 11 11 10 11
2 3 3 2 2 2 2 2 2 2 2 2 2 2 2 2 2 3 4 5 4 3 2 1 1 2 3 4 5 7 8 8 9 10 10 10 10 10 11 11 11 11 11
2 3 3 2 2 2 2 2 2 2 2 2 2 2 3 3 3 3 4 4 4 3 2 1 2 2 3 4 5 7 7 8 9 10 10 10 10 10 11 11 11 11 12
3 3 3 3 3 3 3 2 1 2 2 2 3 3 3 3 3 3 3 3 4 4 3 3 2 2 3 3 5 6 7 8 9 10 10 10 10 10 11 11 11 11 12
3 3 3 3 3 3 3 2 2 2 2 2 3 3 3 3 3 3 3 3 4 5 5 3 2 2 3 4 6 6 7 8 8 8 9 9 9 9 10 10 11 11 11
3 3 3 3 3 3 3 2 2 2 2 3 2 3 3 3 3 3 3 3 4 4 5 3 3 3 3 4 6 6 6 8 8 8 8 9 9 9 9 10 11 11 11
4 4 4 4 4 4 3 3 3 3 3 4 3 3 4 3 3 3 3 3 3 3 6 5 3 2 3 4 5 6 6 6 7 8 8 8 8 8 8 9 10 11 11
5 5 4 4 4 4 4 4 4 4 4 4 4 4 4 3 3 3 3 3 3 4 4 6 4 3 3 3 4 4 5 6 6 7 8 8 7 8 8 9 10 10 10
5 5 4 5 5 5 5 4 5 5 5 5 5 5 5 4 4 4 4 4 3 3 3 5 5 3 3 3 4 4 4 4 6 7 8 7 7 8 9 9 9 9 9
6 6 6 6 6 6 5 5 5 5 5 5 5 5 5 5 5 5 4 4 4 3 3 4 5 4 3 3 2 3 4 3 4 5 6 7 8 9 9 9 9 9 9
6 6 6 6 6 5 5 6 5 6 5 5 5 5 5 6 7 6 5 4 4 4 4 4 4 3 3 3 3 3 4 5 4 2 3 4 5 5 6 8 9 9 9
6 6 6 7 7 6 9 10 7 5 5 6 6 6 6 6 7 8 8 7 6 5 4 4 4 4 5 4 3 3 3 4 4 2 3 5 3 4 5 6 8 9 9
6 6 7 7 8 9 11 11 11 6 6 6 6 6 5 5 7 5 6 7 7 7 7 5 5 5 5 4 3 4 4 4 4 3 3 5 3 4 5 7 9 9 9
6 6 7 7 8 9 12 12 11 6 6 6 7 7 6 6 6 6 4 4 4 4 5 4 5 5 4 4 4 4 4 4 4 3 1 3 3 4 5 7 8 7 9
6 6 6 7 8 9 11 12 10 5 5 7 6 6 7 7 9 9 5 5 5 4 4 5 5 5 5 5 3 1 1 2 3 2 0 2 3 3 4 3 5 7 9
7 6 6 7 8 8 11 11 10 4 5 6 5 6 9 9 10 9 6 5 6 5 3 3 3 4 4 4 3 2 2 2 2 3 1 1 2 2 4 3 3 5 6
Wind_Direction
38 28 20 18 9 4 358 347 340 334 327 319 315 309 297 291 288 286 286 289 287 284 283 282 280 274 265 258 259 259 257 259 261 262 261 259 259 258 254 250 250 250 252
46 31 18 14 5 356 347 341 333 325 316 316 316 313 299 297 294 294 292 294 293 287 283 284 284 283 279 270 269 271 265 263 266 268 267 266 263 263 263 258 252 251 251
46 44 24 4 349 348 350 350 347 349 336 332 318 312 308 305 304 296 295 294 295 296 293 293 293 288 288 289 285 284 281 273 271 271 270 269 266 263 263 263 260 254 252
39 45 33 1 352 356 358 339 342 340 330 323 312 308 310 311 301 296 302 305 298 296 298 298 299 299 302 306 304 301 299 293 282 275 272 272 271 269 268 265 262 257 254
28 36 31 3 360 3 359 336 342 327 310 314 303 302 304 296 292 306 312 311 305 299 302 305 303 303 310 313 313 312 311 310 305 290 280 276 274 273 271 269 266 264 261
26 29 30 12 10 3 352 343 324 326 307 311 312 313 302 291 288 284 287 314 329 318 316 320 320 317 317 316 317 316 314 313 312 308 302 291 281 279 278 276 274 271 268
25 28 21 15 13 1 342 335 331 328 331 339 338 327 316 297 287 285 294 306 336 331 340 338 328 324 321 319 319 319 318 316 315 312 308 302 293 285 285 284 282 280 275
19 26 26 13 8 355 351 350 353 338 335 5 3 341 330 326 328 310 310 303 294 344 342 328 317 318 313 315 319 321 320 316 315 313 310 307 305 300 292 294 289 287 284
12 21 20 13 10 4 351 344 342 343 326 329 342 305 311 291 312 312 316 328 329 326 300 323 309 305 305 308 310 315 316 315 313 310 310 310 306 304 304 300 299 291 291
2 8 11 9 7 359 347 331 339 318 314 312 311 275 252 254 279 304 305 316 324 305 293 310 316 312 315 312 310 315 316 314 310 310 311 312 311 311 309 310 312 306 297
349 351 353 356 351 343 329 328 331 329 301 285 290 296 287 280 248 260 287 301 312 291 300 305 320 326 329 323 318 325 329 325 322 321 320 321 321 319 317 316 314 316 315
323 332 339 338 331 324 314 312 313 316 307 295 288 282 273 268 262 254 269 287 292 289 298 300 295 308 326 329 325 334 336 334 330 327 324 326 330 330 327 323 320 318 316
301 308 319 313 309 304 302 305 309 308 302 297 283 275 270 267 265 256 261 277 280 285 282 280 269 296 317 325 325 334 335 333 330 325 323 326 333 334 331 326 322 321 319
269 281 289 294 297 301 305 309 302 297 297 287 288 282 274 274 266 256 252 266 286 286 274 268 287 284 319 322 324 335 336 332 327 325 326 332 334 332 330 327 324 323 321
267 268 275 286 293 295 296 299 293 291 289 279 278 284 284 284 279 269 260 249 257 279 283 265 268 297 320 327 330 339 334 330 328 327 330 332 329 328 327 326 325 324 322
262 267 270 276 284 288 290 290 287 286 287 287 283 289 290 291 289 284 273 265 252 253 269 275 270 289 311 316 324 331 324 325 323 323 328 328 326 327 328 326 325 323 322
257 257 259 265 271 275 279 276 276 280 278 285 288 284 284 285 285 287 282 272 264 252 263 278 270 286 291 297 314 322 322 321 321 320 321 318 320 326 328 328 325 323 320
253 251 254 258 263 264 263 260 268 271 267 271 274 274 277 283 282 282 277 270 266 258 257 275 281 280 277 288 298 304 320 322 315 314 313 311 316 322 321 321 321 322 322
254 252 249 252 257 259 259 257 255 258 258 262 263 261 265 264 270 272 268 266 268 272 260 264 276 277 283 297 305 304 304 307 316 316 313 313 316 318 317 316 319 322 324
251 250 249 250 252 254 254 255 255 256 259 261 259 258 258 251 254 260 265 260 263 269 270 268 272 278 278 288 294 300 307 310 307 316 317 313 312 313 315 315 318 321 320
250 249 251 255 254 251 248 247 248 252 255 263 264 261 259 257 258 258 263 258 256 261 264 269 272 277 275 285 285 291 296 305 299 305 309 306 310 308 313 315 316 317 318
251 249 248 252 254 255 259 257 251 246 250 255 262 264 263 260 262 268 268 262 254 253 256 259 265 266 270 265 273 282 292 309 303 311 313 297 292 292 299 306 310 315 319
247 248 249 248 252 256 260 262 255 245 243 248 252 257 265 264 265 260 267 270 266 261 254 247 255 258 264 259 259 269 270 268 268 285 309 290 300 292 297 304 309 311 317
245 248 251 248 251 258 261 262 259 245 241 245 245 245 250 258 255 251 252 260 261 265 262 253 246 258 262 260 247 249 260 275 273 272 263 275 299 291 300 306 306 316 321
248 249 252 248 250 261 261 260 257 243 246 250 246 241 243 249 257 254 244 247 262 269 269 260 260 266 276 276 264 249 269 288 289 285 287 273 297 302 297 290 307 321 322
249 253 256 250 247 255 260 258 252 238 248 255 253 246 248 251 256 255 237 232 248 258 255 271 274 280 287 287 277 241 230 245 271 281 282 290 291 325 313 292 294 310 317
Height
1527 1527 1527 1527 1526 1526 1526 1525 1525 1525 1525 1524 1524 1524 1524 1523 1523 1523 1524 1524 1524 1524 1524 1524 1524 1524 1524 1524 1524 1524 1524 1524 1523 1523 1523 1523 1523 1523 1522 1522 1522 1522 1522
1525 1525 1525 1524 1524 1524 1523 1523 1523 1522 1522 1522 1521 1521 1521 1520 1520 1520 1520 1520 1520 1520 1520 1520 1520 1520 1520 1520 1520 1520 1520 1520 1519 1519 1519 1519 1519 1518 1518 1518 1518 1518 1519
1523 1523 1522 1522 1522 1521 1521 1520 1520 1520 1519 1519 1518 1518 1517 1517 1517 1516 1516 1516 1516 1516 1516 1516 1516 1516 1516 1516 1516 1516 1515 1515 1515 1515 1515 1515 1514 1514 1514 1514 1513 1513 1514
1520 1520 1520 1520 1519 1519 1518 1518 1517 1517 1516 1516 1515 1515 1514 1514 1513 1513 1513 1512 1512 1512 1512 1512 1512 1512 1512 1512 1511 1511 1511 1511 1511 1511 1510 1510 1510 1510 1509 1509 1509 1508 1509
1518 1518 1518 1517 1517 1516 1516 1515 1514 1514 1513 1512 1512 1511 1511 1510 1510 1510 1509 1509 1509 1509 1508 1508 1508 1508 1508 1508 1507 1507 1507 1506 1506 1506 1505 1505 1505 1505 1504 1504 1504 1504 1504
1517 1516 1516 1515 1514 1514 1513 1512 1512 1511 1511 1510 1509 1508 1507 1507 1507 1506 1506 1506 1505 1505 1505 1504 1504 1504 1504 1504 1503 1503 1502 1502 1501 1501 1500 1500 1500 1500 1499 1499 1499 1499 1498
1515 1514 1513 1513 1512 1511 1511 1510 1509 1508 1508 1507 1506 1505 1504 1504 1503 1503 1503 1502 1502 1502 1501 1501 1500 1500 1500 1499 1499 1499 1498 1497 1497 1496 1496 1495 1495 1494 1494 1494 1493 1493 1493
1513 1512 1511 1511 1510 1509 1508 1507 1506 1506 1505 1505 1504 1502 1501 1501 1500 1500 1499 1499 1498 1498 1498 1497 1497 1496 1495 1495 1494 1494 1494 1493 1493 1492 1491 1491 1490 1490 1489 1489 1488 1487 1487
1512 1511 1510 1509 1508 1507 1506 1505 1504 1503 1503 1502 1502 1502 1501 1499 1498 1497 1496 1496 1495 1495 1494 1493 1492 1492 1491 1491 1490 1489 1489 1488 1488 1487 1486 1486 1485 1484 1484 1483 1483 1482 1481
1510 1509 1508 1507 1506 1505 1504 1503 1502 1502 1501 1500 1500 1499 1500 1498 1497 1494 1494 1493 1493 1491 1490 1490 1489 1488 1487 1486 1485 1485 1484 1483 1483 1482 1482 1481 1480 1479 1479 1478 1477 1476 1476
1507 1507 1506 1505 1504 1503 1502 1501 1500 1499 1498 1498 1497 1496 1496 1495 1495 1493 1490 1489 1489 1488 1487 1486 1485 1484 1483 1482 1481 1480 1479 1479 1478 1477 1477 1475 1474 1473 1473 1472 1472 1471 1470
1505 1504 1503 1502 1501 1500 1499 1498 1497 1497 1496 1495 1494 1494 1493 1492 1491 1490 1488 1485 1484 1483 1483 1482 1481 1480 1479 1478 1477 1476 1475 1474 1473 1472 1471 1470 1469 1468 1467 1466 1466 1465 1464
1502 1502 1501 1500 1498 1497 1496 1495 1494 1493 1493 1492 1491 1490 1490 1489 1488 1487 1485 1483 1480 1479 1478 1478 1477 1476 1475 1474 1473 1472 1471 1470 1468 1467 1466 1465 1464 1463 1462 1461 1460 1459 1458
1499 1499 1498 1497 1496 1494 1493 1492 1491 1490 1489 1488 1488 1487 1486 1485 1484 1484 1482 1481 1477 1475 1474 1473 1473 1472 1470 1469 1468 1467 1466 1465 1464 1463 1461 1460 1459 1458 1457 1455 1454 1453 1452
1497 1496 1495 1494 1492 1491 1490 1489 1488 1487 1486 1485 1484 1483 1482 1481 1480 1479 1478 1477 1476 1472 1470 1469 1469 1467 1466 1465 1464 1463 1461 1460 1459 1458 1456 1455 1454 1453 1451 1450 1449 1448 1447
1494 1493 1491 1490 1489 1488 1487 1485 1484 1483 1482 1481 1480 1479 1478 1477 1476 1475 1474 1473 1472 1470 1467 1464 1464 1463 1462 1461 1460 1458 1457 1455 1454 1453 1451 1450 1449 1448 1446 1445 1444 1442 1441
1490 1489 1488 1487 1485 1484 1483 1482 1481 1479 1478 1477 1476 1475 1474 1473 1472 1471 1470 1468 1467 1466 1463 1460 1460 1459 1458 1456 1455 1454 1452 1451 1449 1448 1446 1445 1444 1443 1441 1440 1438 1437 1436
1486 1485 1484 1483 1481 1480 1479 1478 1477 1476 1474 1473 1472 1471 1470 1469 1467 1466 1465 1464 1463 1461 1459 1456 1455 1454 1453 1452 1451 1449 1447 1446 1444 1443 1441 1440 1439 1438 1436 1435 1433 1432 1431
1481 1480 1479 1478 1477 1476 1475 1474 1472 1471 1470 1469 1468 1467 1465 1464 1463 1462 1460 1459 1458 1456 1455 1453 1450 1450 1449 1448 1446 1444 1443 1441 1439 1438 1437 1435 1434 1433 1431 1430 1428 1427 1426
1477 1476 1475 1474 1473 1471 1470 1469 1468 1467 1466 1464 1463 1462 1461 1460 1458 1457 1456 1454 1453 1451 1450 1448 1446 1445 1444 1443 1441 1439 1437 1436 1435 1433 1432 1431 1429 1428 1426 1424 1423 1422 1420
1472 1471 1469 1468 1468 1467 1466 1464 1463 1462 1461 1459 1458 1457 1456 1455 1454 1452 1451 1450 1449 1447 1445 1444 1442 1441 1439 1438 1437 1435 1433 1431 1430 1429 1427 1426 1425 1423 1421 1420 1418 1416 1415
1466 1465 1464 1463 1462 1461 1460 1459 1458 1457 1455 1454 1453 1452 1451 1450 1449 1447 1446 1445 1444 1443 1441 1439 1438 1436 1435 1434 1432 1431 1429 1427 1425 1425 1423 1421 1420 1418 1416 1415 1413 1411 1410
1460 1459 1458 1457 1456 1456 1455 1454 1452 1451 1450 1449 1448 1446 1445 1444 1443 1442 1441 1440 1439 1438 1437 1435 1433 1432 1430 1429 1428 1426 1425 1423 1422 1420 1418 1416 1415 1414 1412 1410 1409 1407 1405
1454 1453 1452 1451 1450 1449 1449 1448 1446 1445 1444 1443 1442 1441 1440 1439 1438 1437 1435 1434 1433 1432 1431 1430 1429 1427 1426 1425 1423 1422 1420 1419 1417 1416 1414 1411 1410 1408 1407 1406 1404 1403 1401
1447 1446 1446 1445 1444 1443 1443 1442 1440 1439 1437 1436 1436 1435 1434 1433 1432 1431 1430 1429 1428 1427 1426 1425 1424 1423 1422 1420 1419 1417 1416 1414 1412 1411 1410 1407 1405 1403 1402 1401 1400 1399 1397
1441 1440 1439 1439 1438 1437 1436 1435 1434 1432 1431 1430 1430 1429 1428 1427 1427 1426 1425 1423 1422 1422 1421 1420 1419 1418 1417 1415 1414 1413 1411 1410 1408 1406 1405 1404 1401 1399 1397 1395 1395 1394 1392